Regional Weather Roundup
Issued by NWS

Home | Current Version | Previous Version | Graphics & Text | Print | Product List | Glossary On
Versions: 1 2 3 4 5 6 7 8 9 10 11 12 13 14 15 16 17 18 19 20 21 22 23 24 25 26 27 28 29 30 31 32 33 34 35 36 37 38 39 40 41 42 43 44 45 46 47 48 49 50
000
ASUS45 KABQ 301401
RWRNM
NEW MEXICO REGIONAL WEATHER ROUNDUP
NATIONAL WEATHER SERVICE ALBUQUERQUE NM
800 AM MDT TUE JUN 30 2015

NOTE: "FAIR" MEANS FEW OR NO CLOUDS BELOW 12,000 FEET AGL WITH NO
       SIGNIFICANT WEATHER OR OBSTRUCTIONS TO VISION.

      THIS PRODUCT IS RELEASED AS TWO VERSIONS.  ONE VERSION NEAR
      THE TOP OF THE HOUR CONTAINING PRELIMINARY DATA FROM ALBUQUERQUE
      AND OTHER STATIONS.  A FINAL VERSION WITH ADDITIONAL DATA IS
      ISSUED ABOUT 10 MINUTES AFTER THE HOUR.

NMZ501-503-504-510>518-301500-
NORTHWEST PLATEAU/NORTHCENTRAL MOUNTAINS

CITY           SKY/WX    TMP DP  RH WIND       PRES   REMARKS
FARMINGTON     SUNNY     72  49  44 E10       30.22R
SANTA FE       CLOUDY    65  47  52 CALM      30.34S
TAOS           SUNNY     63  43  48 CALM      30.42R

$$
NMZ402-403-502-505>509-301500-
WESTCENTRAL MOUNTAINS/SOUTHWEST MOUNTAINS

CITY           SKY/WX    TMP DP  RH WIND       PRES   REMARKS
GALLUP         SUNNY     69  49  48 S6        30.29S
GRANTS         SUNNY     71  47  42 S12       30.34R
SILVER CITY      N/A     66  59  77 NW5       30.24R

$$
NMZ407-409-411-412-301500-
SOUTHERN DESERTS

CITY           SKY/WX    TMP DP  RH WIND       PRES   REMARKS
LORDSBURG      FAIR      72  59  64 W3        30.13F
DEMING         MOSUNNY   73  60  63 E13       30.16R
ALAMOGORDO     MOSUNNY   79  50  36 N8        30.16S
T OR C         CLOUDY    74  60  61 N3        30.20R

$$
NMZ519>523-301500-
CENTRAL VALLEYS/CENTRAL HIGHLANDS

CITY           SKY/WX    TMP DP  RH WIND       PRES   REMARKS
ALBUQUERQUE    MOSUNNY   73  50  44 NW8       30.27R
DOUBLE EAGLE   PTSUNNY   70  50  49 N7        30.31R
MORIARTY ARPT  PTSUNNY   66  50  57 NE5       30.35S
CLINES CORNERS SUNNY     66  49  54 E7        30.38R
BELEN          FAIR      74  48  40 NE6       30.25S
SOCORRO        NOT AVBL

$$
NMZ524>526-539-540-301500-
SOUTHCENTRAL MOUNTAINS

CITY           SKY/WX    TMP DP  RH WIND       PRES   REMARKS
RUIDOSO        NOT AVBL

$$
NMZ527>531-301500-
NORTHEAST HIGHLANDS/NORTHEAST PLAINS

CITY           SKY/WX    TMP DP  RH WIND       PRES   REMARKS
LAS VEGAS      SUNNY     64  50  60 SW5       30.38R
RATON          SUNNY     62  53  72 CALM      30.33S
CLAYTON        SUNNY     74  55  51 SW9       30.23S

$$
NMZ532>537-301500-
EASTCENTRAL PLAINS

CITY           SKY/WX    TMP DP  RH WIND       PRES   REMARKS
TUCUMCARI      SUNNY     72  56  57 S6        30.19F
CANNON AFB     NOT AVBL
CLOVIS AIRPORT SUNNY     66  57  72 S10       30.23R

$$
NMZ028-029-538-301500-
SOUTHEAST PLAINS

CITY           SKY/WX    TMP DP  RH WIND       PRES   REMARKS
ROSWELL        SUNNY     70  61  73 S10       30.18S
ARTESIA        SUNNY     70  64  83 S10       30.19S
CARLSBAD       SUNNY     72  63  73 S12       30.16S
HOBBS          SUNNY     64  64 100 SE6       30.19R


$$


USA.gov is the U.S. government's official web portal to all federal, state and local government web resources and services.